sat.trackr.live / text

‹ back to catalog

HYPSO-2

NORAD 60531 · 2024-149BR

PAYLOAD ACTIVE UNKNOWN

§ Identity

Operator
Country
NOR
Launch date
2024-08-16
Launch site
AFWTR
Launch vehicle
Mass (kg)
RCS (m²)

External: N2YO · Heavens-Above · Gunter

§ Orbital elements

Epoch: 2026-09-22T12:37:54.976800Z

Period
96.05 min
Inclination
97.6746°
Eccentricity
0.0001256
Mean motion
14.99164904 rev/d
Perigee alt
568.6 km
Apogee alt
570.3 km
Semi-major
6,947.6 km
B*
7.8387e-5
RAAN
340.3589°
Arg perigee
21.6199°
Mean anomaly
338.5077°
Rev number
11,463

§ Raw data

HYPSO-21 60531U 24149BR  26265.52633075  .00000895  00000+0  78387-4 0  99952 60531  97.6746 340.3589 0001256  21.6199 338.5077 14.99164904114635

JSON: /api/v1/satellites/60531 · /tle

For live sub-satellite position, see the globe view (requires WebGL).

§ Visibility from observer

Set your observer location to see the next 7 days of passes ≥ 10°. The values pass through the URL so the page stays shareable.

No JS? Fill the form by hand. The geolocation button needs JavaScript.